FW6045 Weather Reports


Display with metric or nautical units.
time (UTC)temp
F
wind
direction
speed
MPH
gust
MPH
rain 1hr
in
rain 24hr
in
rain mn
in
humidity
%
barometer
mb
20200403221057 67 75 4.0 8.0 0.00 0.00 0.00 34 1016.1
20200403220603 67 87 3.0 9.0 0.00 0.00 0.00 34 1016.0
20200403220136 67 38 3.0 9.0 0.00 0.00 0.00 35 1016.1
20200403215557 67 37 2.0 10.0 0.00 0.00 0.00 34 1016.0
20200403215100 67 60 6.0 10.0 0.00 0.00 0.00 34 1016.1
20200403214641 67 32 5.0 9.0 0.00 0.00 0.00 35 1016.1
20200403214058 67 45 5.0 9.0 0.00 0.00 0.00 33 1016.0
20200403213557 67 103 3.0 13.0 0.00 0.00 0.00 33 1016.0
20200403213129 67 101 7.0 13.0 0.00 0.00 0.00 33 1016.0
20200403212605 67 360 2.0 13.0 0.00 0.00 0.00 33 1015.9
20200403212116 67 42 6.0 13.0 0.00 0.00 0.00 35 1016.0
20200403211755 67 106 8.0 12.0 0.00 0.00 0.00 34 1016.0
20200403211058 67 153 2.0 7.0 0.00 0.00 0.00 34 1016.1
20200403210558 67 58 4.0 7.0 0.00 0.00 0.00 33 1016.2
20200403210151 67 67 3.0 10.0 0.00 0.00 0.00 34 1016.2
20200403205609 67 64 5.0 10.0 0.00 0.00 0.00 34 1016.3
20200403205129 67 26 3.0 8.0 0.00 0.00 0.00 34 1016.2
20200403204637 67 36 3.0 10.0 0.00 0.00 0.00 34 1016.2
20200403204110 67 33 6.0 10.0 0.00 0.00 0.00 33 1016.3
20200403203604 67 360 3.0 11.0 0.00 0.00 0.00 32 1016.3
20200403203119 67 331 7.0 11.0 0.00 0.00 0.00 33 1016.3
20200403202556 67 61 1.0 9.0 0.00 0.00 0.00 33 1016.3
20200403202058 66 0 3.0 11.0 0.00 0.00 0.00 35 1016.4
20200403201732 66 89 4.0 12.0 0.00 0.00 0.00 34 1016.2
20200403201056 66 61 5.0 12.0 0.00 0.00 0.00 35 1016.3
20200403200558 67 61 3.0 12.0 0.00 0.00 0.00 34 1016.3
20200403200209 66 5 5.0 12.0 0.00 0.00 0.00 32 1016.4
20200403195609 66 65 8.0 11.0 0.00 0.00 0.00 32 1016.4
20200403195058 66 69 4.0 9.0 0.00 0.00 0.00 34 1016.4
20200403194635 65 102 5.0 11.0 0.00 0.00 0.00 34 1016.4
20200403194107 65 121 6.0 12.0 0.00 0.00 0.00 34 1016.6
20200403193604 65 134 7.0 12.0 0.00 0.00 0.00 35 1016.6
20200403193142 66 160 7.0 12.0 0.00 0.00 0.00 35 1016.7
20200403192558 66 188 3.0 9.0 0.00 0.00 0.00 35 1016.9
20200403192056 66 106 4.0 9.0 0.00 0.00 0.00 33 1016.9
20200403191807 66 44 3.0 9.0 0.00 0.00 0.00 33 1017.0
20200403191057 65 34 3.0 7.0 0.00 0.00 0.00 36 1017.1
20200403190602 65 63 3.0 7.0 0.00 0.00 0.00 36 1017.1
20200403190113 64 125 2.0 10.0 0.00 0.00 0.00 36 1017.2
20200403185557 64 96 6.0 10.0 0.00 0.00 0.00 36 1017.2
20200403185104 64 119 5.0 11.0 0.00 0.00 0.00 38 1017.3
20200403184804 64 140 4.0 11.0 0.00 0.00 0.00 36 1017.4
20200403184056 64 82 6.0 11.0 0.00 0.00 0.00 36 1017.4
20200403183603 64 134 4.0 9.0 0.00 0.00 0.00 38 1017.5
20200403183214 64 161 3.0 10.0 0.00 0.00 0.00 36 1017.6
20200403182557 64 94 4.0 12.0 0.00 0.00 0.00 35 1017.7
20200403182056 63 40 7.0 12.0 0.00 0.00 0.00 35 1017.7
20200403181717 64 53 3.0 9.0 0.00 0.00 0.00 35 1017.7
20200403181055 63 112 5.0 10.0 0.00 0.00 0.00 37 1017.9
20200403180603 63 38 3.0 10.0 0.00 0.00 0.00 35 1017.9
20200403180140 63 53 5.0 10.0 0.00 0.00 0.00 36 1017.9
20200403175608 63 19 3.0 7.0 0.00 0.00 0.00 38 1018.0
20200403175126 62 34 2.0 9.0 0.00 0.00 0.00 42 1017.9
20200403174710 62 154 2.0 9.0 0.00 0.00 0.00 40 1018.0
20200403174055 62 157 2.0 9.0 0.00 0.00 0.00 41 1018.1
20200403173558 61 151 5.0 9.0 0.00 0.00 0.00 39 1018.1
20200403173138 62 128 4.0 10.0 0.00 0.00 0.00 38 1018.2
20200403172557 62 32 5.0 10.0 0.00 0.00 0.00 38 1018.3
20200403172059 63 176 3.0 8.0 0.00 0.00 0.00 40 1018.5
20200403171638 62 107 3.0 9.0 0.00 0.00 0.00 38 1018.5
20200403171055 62 320 2.0 9.0 0.00 0.00 0.00 40 1018.6
20200403170600 62 350 2.0 8.0 0.00 0.00 0.00 40 1018.6
20200403170117 62 309 5.0 8.0 0.00 0.00 0.00 39 1018.6
20200403165606 61 59 3.0 7.0 0.00 0.00 0.00 41 1018.9
20200403165057 61 161 3.0 10.0 0.00 0.00 0.00 39 1018.9
20200403164643 61 185 4.0 10.0 0.00 0.00 0.00 39 1018.9
20200403164104 61 193 6.0 10.0 0.00 0.00 0.00 42 1018.9
20200403163740 61 249 4.0 10.0 0.00 0.00 0.00 39 1019.0
20200403163211 61 203 3.0 10.0 0.00 0.00 0.00 42 1019.1
20200403162603 60 241 5.0 10.0 0.00 0.00 0.00 40 1019.1
20200403162055 60 239 5.0 11.0 0.00 0.00 0.00 43 1019.1
20200403161753 59 150 7.0 11.0 0.00 0.00 0.00 41 1019.2
20200403161058 60 211 3.0 9.0 0.00 0.00 0.00 41 1019.3
20200403160559 60 146 2.0 10.0 0.00 0.00 0.00 43 1019.3
20200403160151 59 126 4.0 10.0 0.00 0.00 0.00 42 1019.3
20200403155603 60 115 3.0 7.0 0.00 0.00 0.00 39 1019.3
20200403155105 59 157 2.0 7.0 0.00 0.00 0.00 44 1019.3
20200403154708 59 279 1.0 9.0 0.00 0.00 0.00 44 1019.5
20200403154106 59 306 5.0 9.0 0.00 0.00 0.00 45 1019.5
20200403153600 59 269 3.0 7.0 0.00 0.00 0.00 45 1019.4
20200403153151 59 245 3.0 7.0 0.00 0.00 0.00 47 1019.5
20200403152623 58 234 3.0 7.0 0.00 0.00 0.00 47 1019.5
20200403152059 58 183 4.0 9.0 0.00 0.00 0.00 49 1019.5
20200403151617 57 186 4.0 9.0 0.00 0.00 0.00 47 1019.5
20200403151059 58 143 1.0 5.0 0.00 0.00 0.00 49 1019.5
20200403150606 57 0 3.0 6.0 0.00 0.00 0.00 50 1019.5
20200403150136 57 142 2.0 6.0 0.00 0.00 0.00 50 1019.6
20200403145600 57 199 1.0 4.0 0.00 0.00 0.00 52 1019.7
20200403145102 57 198 2.0 5.0 0.00 0.00 0.00 52 1019.8
20200403144654 57 232 2.0 5.0 0.00 0.00 0.00 52 1019.8
20200403144100 56 202 2.0 6.0 0.00 0.00 0.00 55 1019.8
20200403143559 56 188 2.0 6.0 0.00 0.00 0.00 54 1019.8
20200403143217 56 192 1.0 5.0 0.00 0.00 0.00 56 1019.8
20200403142558 56 241 3.0 5.0 0.00 0.00 0.00 55 1019.8
20200403142100 56 171 1.0 4.0 0.00 0.00 0.00 57 1019.8
20200403141829 56 168 1.0 5.0 0.00 0.00 0.00 55 1019.7
20200403141117 55 0 0.0 5.0 0.00 0.00 0.00 55 1019.7
20200403140559 54 169 2.0 5.0 0.00 0.00 0.00 56 1019.7
20200403140218 54 190 1.0 4.0 0.00 0.00 0.00 60 1019.7
20200403135558 53 196 2.0 4.0 0.00 0.00 0.00 60 1019.6
20200403135101 54 252 1.0 3.0 0.00 0.00 0.00 60 1019.7
20200403134716 53 259 1.0 3.0 0.00 0.00 0.00 63 1019.8
20200403134102 53 260 2.0 3.0 0.00 0.00 0.00 62 1019.8
20200403133603 53 260 1.0 3.0 0.00 0.00 0.00 65 1019.8
20200403133237 52 260 1.0 3.0 0.00 0.00 0.00 66 1019.9
20200403132612 51 0 0.0 3.0 0.00 0.00 0.00 67 1019.9
20200403132059 51 286 2.0 3.0 0.00 0.00 0.00 64 1019.9
20200403131741 52 338 1.0 2.0 0.00 0.00 0.00 64 1019.9
20200403131115 51 343 0.0 3.0 0.00 0.00 0.00 65 1019.8
20200403130558 51 343 1.0 3.0 0.00 0.00 0.00 65 1019.7
20200403130136 51 342 1.0 3.0 0.00 0.00 0.00 64 1019.8
20200403125624 52 341 2.0 3.0 0.00 0.00 0.00 64 1019.8
20200403125103 52 325 0.0 1.0 0.00 0.00 0.00 63 1019.8
20200403124559 51 0 0.0 1.0 0.00 0.00 0.00 61 1019.8
20200403124109 51 0 0.0 1.0 0.00 0.00 0.00 62 1019.8
20200403123620 50 0 0.0 1.0 0.00 0.00 0.00 63 1019.9
20200403123146 49 0 0.0 3.0 0.00 0.00 0.00 65 1019.9
20200403122558 49 0 0.0 4.0 0.00 0.00 0.00 63 1019.8
20200403122058 48 325 2.0 4.0 0.00 0.00 0.00 63 1019.8
20200403121645 48 325 2.0 5.0 0.00 0.00 0.00 63 1019.8
20200403121103 48 325 4.0 5.0 0.00 0.00 0.00 64 1019.7
20200403120558 48 331 3.0 5.0 0.00 0.00 0.00 64 1019.6
20200403120213 48 319 4.0 5.0 0.00 0.00 0.00 64 1019.6
20200403115648 48 313 4.0 7.0 0.00 0.00 0.00 64 1019.6
20200403115059 47 304 4.0 7.0 0.00 0.00 0.00 65 1019.5
20200403114556 47 304 5.0 7.0 0.00 0.00 0.00 65 1019.4
20200403114111 47 301 5.0 7.0 0.00 0.00 0.00 65 1019.4
20200403113615 47 299 5.0 7.0 0.00 0.00 0.00 65 1019.4
20200403113200 47 295 5.0 7.0 0.00 0.00 0.00 67 1019.4
20200403112601 47 291 5.0 7.0 0.00 0.00 0.00 67 1019.3
20200403112104 47 294 5.0 7.0 0.00 0.00 0.00 67 1019.4
20200403111750 47 298 4.0 5.0 0.00 0.00 0.00 67 1019.4
20200403111104 47 298 4.0 5.0 0.00 0.00 0.00 67 1019.3
20200403110558 47 298 4.0 7.0 0.00 0.00 0.00 68 1019.2
20200403110152 46 296 5.0 7.0 0.00 0.00 0.00 70 1019.2
20200403105606 46 294 4.0 6.0 0.00 0.00 0.00 71 1019.2
20200403105058 46 286 4.0 5.0 0.00 0.00 0.00 71 1019.2
20200403104658 46 294 4.0 5.0 0.00 0.00 0.00 72 1019.0
20200403104058 46 294 3.0 4.0 0.00 0.00 0.00 71 1018.9
20200403103556 46 294 3.0 7.0 0.00 0.00 0.00 72 1018.8
20200403103144 45 294 2.0 7.0 0.00 0.00 0.00 74 1018.8
20200403102602 44 294 4.0 7.0 0.00 0.00 0.00 76 1018.8
20200403102109 44 284 4.0 6.0 0.00 0.00 0.00 76 1018.7
20200403101602 44 274 3.0 6.0 0.00 0.00 0.00 77 1018.6
20200403101105 44 259 2.0 6.0 0.00 0.00 0.00 78 1018.5
20200403100559 43 259 3.0 6.0 0.00 0.00 0.00 79 1018.5
20200403100242 43 248 1.0 4.0 0.00 0.00 0.00 80 1018.3
20200403095559 43 240 2.0 5.0 0.00 0.00 0.00 81 1018.3
20200403095058 42 240 3.0 5.0 0.00 0.00 0.00 81 1018.5
20200403094813 42 240 3.0 6.0 0.00 0.00 0.00 82 1018.4
20200403094059 43 230 4.0 6.0 0.00 0.00 0.00 79 1018.4
20200403093620 44 232 3.0 6.0 0.00 0.00 0.00 75 1018.5
20200403093150 46 255 1.0 3.0 0.00 0.00 0.00 68 1018.3
20200403092648 46 83 2.0 5.0 0.00 0.00 0.00 67 1018.1
20200403092056 46 82 2.0 7.0 0.00 0.00 0.00 66 1018.0
20200403091101 47 85 4.0 5.0 0.00 0.00 0.00 66 1017.7
20200403090557 47 86 3.0 5.0 0.00 0.00 0.00 66 1017.8
20200403090220 47 76 3.0 10.0 0.00 0.00 0.00 65 1017.7
20200403085555 47 80 5.0 10.0 0.00 0.00 0.00 65 1017.7
20200403085057 47 83 7.0 11.0 0.00 0.00 0.00 64 1017.7
20200403084623 47 83 7.0 11.0 0.00 0.00 0.00 64 1017.8
20200403084057 48 84 8.0 10.0 0.00 0.00 0.00 63 1017.7
20200403083556 48 83 7.0 10.0 0.00 0.00 0.00 63 1017.7
20200403083329 48 76 6.0 9.0 0.00 0.00 0.00 63 1017.7
20200403082619 48 72 4.0 8.0 0.00 0.00 0.00 63 1017.9
20200403082058 48 76 5.0 8.0 0.00 0.00 0.00 62 1017.9
20200403081710 48 77 5.0 9.0 0.00 0.00 0.00 62 1017.9
20200403081122 48 76 6.0 9.0 0.00 0.00 0.00 61 1018.0
20200403080602 48 78 6.0 9.0 0.00 0.00 0.00 61 1018.1
20200403080154 49 78 6.0 10.0 0.00 0.00 0.00 60 1018.1
20200403075603 49 64 6.0 10.0 0.00 0.00 0.00 60 1018.1
20200403075108 49 69 8.0 10.0 0.00 0.00 0.00 60 1018.0
20200403074727 49 74 6.0 9.0 0.00 0.00 0.00 60 1018.1
20200403074057 49 67 4.0 6.0 0.00 0.00 0.00 60 1018.2
20200403073557 49 60 4.0 5.0 0.00 0.00 0.00 59 1018.2
20200403073147 49 60 4.0 6.0 0.00 0.00 0.00 59 1018.3
20200403072556 49 60 4.0 6.0 0.00 0.00 0.00 59 1018.3
20200403072057 49 60 3.0 5.0 0.00 0.00 0.00 59 1018.4
20200403071823 49 65 2.0 5.0 0.00 0.00 0.00 59 1018.5
20200403071104 49 65 3.0 5.0 0.00 0.00 0.00 59 1018.4
20200403070558 49 65 3.0 5.0 0.00 0.00 0.00 59 1018.5
20200403070232 50 73 3.0 7.0 0.00 0.00 0.00 58 1018.5
20200403065614 50 72 4.0 8.0 0.00 0.00 0.00 58 1018.5
20200403065135 50 61 5.0 8.0 0.00 0.00 0.00 57 1018.5
20200403064620 50 67 4.0 8.0 0.00 0.00 0.00 57 1018.6
20200403064058 51 65 5.0 7.0 0.00 0.00 0.00 57 1018.6
20200403063557 50 58 5.0 7.0 0.00 0.00 0.00 57 1018.6
20200403063113 51 54 4.0 6.0 0.00 0.00 0.00 56 1018.8
20200403062559 51 54 4.0 6.0 0.00 0.00 0.00 56 1018.8
20200403062119 51 46 4.0 6.0 0.00 0.00 0.00 56 1018.9
20200403062003 50 47 4.0 5.0 0.00 0.00 0.00 56 1019.0
20200403061056 50 38 3.0 4.0 0.00 0.00 0.00 56 1019.0
20200403060558 51 38 2.0 4.0 0.00 0.00 0.00 56 1019.1
20200403060156 51 38 2.0 5.0 0.00 0.00 0.00 56 1019.1
20200403055602 51 38 3.0 5.0 0.00 0.00 0.00 55 1019.0
20200403055059 51 38 3.0 6.0 0.00 0.00 0.00 55 1018.9
20200403054705 51 41 4.0 6.0 0.00 0.00 0.00 55 1018.9
20200403054059 51 42 5.0 6.0 0.00 0.00 0.00 55 1019.0
20200403053558 51 43 3.0 5.0 0.00 0.00 0.00 55 1019.0
20200403053156 51 44 3.0 6.0 0.00 0.00 0.00 54 1018.9
20200403052609 51 40 3.0 6.0 0.00 0.00 0.00 54 1018.9
20200403052055 51 45 4.0 6.0 0.00 0.00 0.00 54 1018.9
20200403051710 51 46 4.0 6.0 0.00 0.00 0.00 54 1018.9
20200403051100 51 35 4.0 6.0 0.00 0.00 0.00 54 1018.8
20200403050558 51 26 3.0 8.0 0.00 0.00 0.00 54 1018.9
20200403050215 51 40 4.0 9.0 0.00 0.00 0.00 54 1019.0
20200403045614 52 38 6.0 9.0 0.00 0.00 0.00 53 1018.9
20200403045057 52 31 6.0 9.0 0.00 0.00 0.00 53 1018.8
20200403044846 52 26 6.0 9.0 0.00 0.00 0.00 53 1018.9
20200403044058 52 17 7.0 9.0 0.00 0.00 0.00 53 1018.8
20200403043555 52 24 7.0 9.0 0.00 0.00 0.00 52 1018.8
20200403043134 52 28 6.0 8.0 0.00 0.00 0.00 52 1018.9
20200403042557 52 24 5.0 7.0 0.00 0.00 0.00 52 1018.8
20200403042058 52 24 5.0 7.0 0.00 0.00 0.00 52 1018.8
20200403041703 52 14 5.0 7.0 0.00 0.00 0.00 52 1018.9
20200403041103 53 15 4.0 5.0 0.00 0.00 0.00 51 1018.9
20200403040558 53 5 4.0 5.0 0.00 0.00 0.00 51 1018.8
20200403040216 53 5 4.0 5.0 0.00 0.00 0.00 51 1018.8
20200403035609 53 5 2.0 4.0 0.00 0.00 0.00 50 1018.8
20200403035104 53 5 2.0 4.0 0.00 0.00 0.00 50 1018.8
20200403034621 53 5 2.0 4.0 0.00 0.00 0.00 50 1018.8
20200403034121 53 5 2.0 4.0 0.00 0.00 0.00 50 1018.8
20200403033626 53 5 2.0 3.0 0.00 0.00 0.00 51 1018.8
20200403033117 53 5 2.0 3.0 0.00 0.00 0.00 51 1018.7
20200403032604 53 5 2.0 3.0 0.00 0.00 0.00 51 1018.7
20200403032059 53 5 2.0 4.0 0.00 0.00 0.00 51 1018.8
20200403031729 53 5 2.0 4.0 0.00 0.00 0.00 51 1018.8
20200403031104 53 5 2.0 3.0 0.00 0.00 0.00 51 1018.7
20200403030556 54 51 1.0 2.0 0.00 0.00 0.00 50 1018.5
20200403030112 54 51 1.0 4.0 0.00 0.00 0.00 49 1018.6
20200403025558 54 51 2.0 4.0 0.00 0.00 0.00 48 1018.6
20200403025103 55 67 3.0 5.0 0.00 0.00 0.00 48 1018.7
20200403024655 55 70 3.0 5.0 0.00 0.00 0.00 48 1018.7
20200403024105 55 70 3.0 7.0 0.00 0.00 0.00 47 1018.6
20200403023604 55 72 4.0 7.0 0.00 0.00 0.00 47 1018.6
20200403023138 55 72 5.0 7.0 0.00 0.00 0.00 47 1018.8
20200403022624 55 74 4.0 7.0 0.00 0.00 0.00 48 1018.7
20200403022058 55 71 4.0 7.0 0.00 0.00 0.00 48 1018.7
20200403021732 55 71 4.0 9.0 0.00 0.00 0.00 48 1018.7
20200403021104 55 69 5.0 9.0 0.00 0.00 0.00 48 1018.7
20200403020559 55 64 5.0 9.0 0.00 0.00 0.00 48 1018.8
20200403020127 55 73 7.0 9.0 0.00 0.00 0.00 48 1018.6
20200403015604 56 65 6.0 9.0 0.00 0.00 0.00 47 1018.6
20200403015055 56 59 6.0 9.0 0.00 0.00 0.00 47 1018.6
20200403014558 56 67 5.0 8.0 0.00 0.00 0.00 47 1018.6
20200403014102 56 56 4.0 7.0 0.00 0.00 0.00 47 1018.7
20200403013557 56 54 5.0 8.0 0.00 0.00 0.00 47 1018.6
20200403013137 56 53 5.0 8.0 0.00 0.00 0.00 47 1018.6
20200403012557 56 62 5.0 8.0 0.00 0.00 0.00 47 1018.5
20200403012117 56 59 5.0 8.0 0.00 0.00 0.00 47 1018.6
20200403011725 56 60 5.0 8.0 0.00 0.00 0.00 47 1018.6
20200403011057 56 58 5.0 7.0 0.00 0.00 0.00 47 1018.7
20200403010557 56 51 5.0 7.0 0.00 0.00 0.00 47 1018.7
20200403010148 56 49 4.0 7.0 0.00 0.00 0.00 47 1018.6
20200403005557 56 55 4.0 5.0 0.00 0.00 0.00 47 1018.6
20200403005056 56 60 3.0 5.0 0.00 0.00 0.00 47 1018.6
20200403004622 56 71 3.0 5.0 0.00 0.00 0.00 48 1018.5
20200403004110 57 71 4.0 7.0 0.00 0.00 0.00 48 1018.4
20200403003608 57 71 4.0 7.0 0.00 0.00 0.00 47 1018.4
20200403003328 57 76 3.0 7.0 0.00 0.00 0.00 47 1018.3
20200403002604 57 73 4.0 7.0 0.00 0.00 0.00 48 1018.4
20200403002105 57 67 4.0 6.0 0.00 0.00 0.00 47 1018.3
20200403001707 57 61 4.0 6.0 0.00 0.00 0.00 47 1018.4
20200403001112 58 59 4.0 6.0 0.00 0.00 0.00 46 1018.3
20200403000615 58 65 3.0 7.0 0.00 0.00 0.00 45 1018.3
20200403000131 58 63 3.0 7.0 0.00 0.00 0.00 45 1018.4
20200402235610 58 85 3.0 5.0 0.00 0.00 0.00 44 1018.3
20200402235058 59 42 2.0 5.0 0.00 0.00 0.00 43 1018.4
20200402234637 59 38 2.0 5.0 0.00 0.00 0.00 42 1018.4
20200402234058 59 32 3.0 7.0 0.00 0.00 0.00 42 1018.3
20200402233557 59 43 5.0 7.0 0.00 0.00 0.00 43 1018.3
20200402233104 60 59 3.0 9.0 0.00 0.00 0.00 42 1018.3
20200402232557 60 9 5.0 9.0 0.00 0.00 0.00 40 1018.3
20200402232059 60 20 5.0 9.0 0.00 0.00 0.00 41 1018.4
20200402231612 61 350 4.0 6.0 0.00 0.00 0.00 41 1018.5
20200402231059 61 321 2.0 5.0 0.00 0.00 0.00 40 1018.5
20200402230557 60 325 2.0 4.0 0.00 0.00 0.00 41 1018.5
20200402230118 60 345 2.0 5.0 0.00 0.00 0.00 40 1018.4
20200402225555 60 309 2.0 10.0 0.00 0.00 0.00 40 1018.4
20200402225106 60 325 6.0 10.0 0.00 0.00 0.00 40 1018.4
20200402224634 61 328 4.0 7.0 0.00 0.00 0.00 40 1018.4
20200402224100 61 35 1.0 4.0 0.00 0.00 0.00 40 1018.4
20200402223624 61 346 1.0 4.0 0.00 0.00 0.00 40 1018.4
20200402223124 61 121 2.0 4.0 0.00 0.00 0.00 40 1018.4
20200402222559 61 72 2.0 9.0 0.00 0.00 0.00 40 1018.4
20200402222058 61 309 3.0 9.0 0.00 0.00 0.00 40 1018.4
20200402221636 61 16 3.0 8.0 0.00 0.00 0.00 40 1018.4